This is the latest recevied weather packets stored in our database for station/object DELTON-WX. If no packets are shown the sender has not sent any weather packets the latest 10 day(s).
| Time | Temp. | Humidity | Pressure | Rain* | Wind** | Luminosity | Snow |
|---|---|---|---|---|---|---|---|
| 1777447863 | 8.89° C | 84% | 978.8 hPa | 0 mm | - | - | - |
| 1777446944 | 8.89° C | 84% | 978.8 hPa | 0 mm | - | - | - |
| 1777446074 | 8.89° C | 84% | 978.8 hPa | 0 mm | - | - | - |
| 1777445144 | 8.89° C | 82% | 980.4 hPa | 0 mm | - | - | - |
| 1777444264 | 8.89° C | 81% | 979.6 hPa | 0 mm | - | - | - |
| 1777443344 | 8.89° C | 81% | 979.7 hPa | 0 mm | - | - | - |
| 1777442487 | 9.44° C | 81% | 979.7 hPa | 0 mm | - | - | - |
| 1777441545 | 9.44° C | 79% | 980.6 hPa | 0 mm | - | - | - |
| 1777440665 | 9.44° C | 78% | 979.5 hPa | 0 mm | - | - | - |
| 1777439745 | 9.44° C | 78% | 979.5 hPa | 0 mm | - | - | - |
| 1777438875 | 9.44° C | 78% | 979.5 hPa | 0 mm | - | - | - |
| 1777437945 | 8.89° C | 80% | 980.8 hPa | 0 mm | - | - | - |
| 1777437064 | 9.44° C | 80% | 980.8 hPa | 0 mm | - | - | - |
| 1777436144 | 8.89° C | 81% | 978.9 hPa | 0 mm | - | - | - |
| 1777435278 | 9.44° C | 81% | 978.9 hPa | 0 mm | - | - | - |
| 1777434344 | 9.44° C | 79% | 980.5 hPa | 0 mm | - | - | - |
| 1777433464 | 9.44° C | 78% | 980.5 hPa | 0 mm | - | - | - |
| 1777432544 | 10° C | 78% | 980.3 hPa | 0 mm | - | - | - |
| 1777431674 | 9.44° C | 78% | 980.3 hPa | 0 mm | - | - | - |
| 1777430743 | 10° C | 72% | 978.1 hPa | 0 mm | - | - | - |
| 1777429860 | 10° C | 72% | 978.1 hPa | 0 mm | - | - | - |
| 1777428944 | 10° C | 77% | 979.3 hPa | 0 mm | - | - | - |
| 1777428072 | 10.56° C | 77% | 979.3 hPa | 0 mm | - | - | - |
| 1777427144 | 10.56° C | 81% | 978.8 hPa | 0 mm | - | - | - |
| 1777426258 | 11.11° C | 81% | 978.8 hPa | 0 mm | - | - | - |
* Rain latest hour (hover to see other rain measurements)
** Current wind speed in m/s (hover to see current wind gust speed)